Wind_Speed
8 7 8 3 4 4 3 2 5 4 5 1 2 10 10 3 4 5 13 21 22 20 16 14 14 15 15 16 16 17 17 16 18 18 19 18 18 19 19 19 20 20 19 19 20 21 22 23 23
9 7 1 1 4 2 4 3 8 6 5 6 8 6 7 4 4 10 16 23 19 21 18 16 14 17 17 14 16 17 15 17 18 18 18 17 16 18 18 18 19 18 19 19 19 20 22 20 21
9 4 3 3 2 3 5 4 9 5 5 2 4 5 4 5 4 8 24 23 24 20 18 16 16 17 16 15 17 17 15 16 17 18 17 15 17 18 17 17 17 19 18 17 17 18 19 18 18
5 4 3 3 1 5 6 6 9 6 5 4 6 7 4 4 9 16 25 27 24 19 18 17 16 16 15 15 16 17 14 16 17 16 15 14 15 16 16 16 17 18 18 17 17 17 16 14 15
4 2 1 1 1 2 4 9 8 6 6 3 6 2 4 5 25 30 29 27 22 23 20 18 17 17 16 16 17 15 15 15 16 16 14 13 13 16 15 15 17 16 17 16 16 15 14 12 13
2 2 3 2 4 4 4 8 8 5 6 8 7 6 2 24 29 28 29 25 21 23 21 19 17 18 17 18 17 14 13 13 14 15 13 13 14 14 14 15 15 15 15 13 13 13 12 12 12
4 3 4 2 4 4 4 7 8 8 6 4 10 6 6 16 24 26 27 25 20 19 19 17 16 16 17 17 15 13 12 12 14 15 13 12 14 14 14 14 14 12 12 12 11 11 10 10 10
3 4 2 1 6 4 5 2 4 9 2 2 8 6 6 18 27 26 27 26 21 17 17 17 17 16 17 16 15 12 10 12 12 13 12 12 14 14 13 13 11 11 10 8 7 8 8 7 8
2 3 1 4 7 4 4 4 3 3 6 4 4 7 19 36 30 26 29 27 26 20 16 16 17 15 15 16 16 14 11 11 12 12 13 12 12 10 8 8 7 7 6 6 5 5 7 7 8
3 4 4 4 7 7 7 6 6 5 5 5 7 14 29 34 31 26 22 23 26 25 20 15 16 15 15 16 16 13 12 11 11 12 11 10 7 7 7 6 6 5 5 5 5 5 6 5 3
5 5 3 4 1 11 9 5 4 11 2 7 17 15 20 23 24 23 25 26 29 26 21 18 19 15 14 15 15 13 11 11 10 11 9 10 5 5 4 5 6 6 8 7 4 5 2 2 2
5 2 2 1 3 6 9 7 6 5 6 11 17 20 18 14 17 20 24 29 27 27 23 21 19 18 15 11 14 11 12 10 8 8 9 9 6 6 5 4 4 5 4 3 2 1 1 2 2
4 4 4 1 4 7 7 5 5 5 1 12 17 18 14 15 19 24 25 26 29 29 27 25 22 20 16 13 13 12 11 13 10 9 9 8 7 7 5 3 2 0 1 1 2 2 3 3 4
8 4 7 2 2 4 7 2 5 5 5 11 15 13 14 17 22 25 26 27 30 30 30 28 25 22 20 17 16 17 12 13 12 10 9 9 7 5 7 6 5 4 4 4 4 4 5 6 7
10 6 4 3 3 3 6 2 4 7 6 10 8 9 10 18 27 26 32 30 32 30 31 31 29 26 21 21 19 16 15 13 10 10 8 7 9 7 7 7 6 6 6 6 7 8 9 11 11
6 5 5 3 6 2 2 5 5 7 10 10 9 8 9 9 24 29 30 30 32 31 33 32 29 25 23 21 20 22 17 14 14 10 8 8 8 10 9 9 8 7 8 9 9 10 12 13 14
3 5 5 4 6 4 3 3 3 7 7 9 9 9 8 8 14 26 27 24 26 30 29 32 30 27 24 22 21 20 19 18 13 12 10 8 8 8 11 10 10 10 10 12 13 13 14 16 18
7 5 4 7 7 3 5 2 5 6 7 9 8 9 9 9 10 21 26 28 26 27 28 27 30 29 25 21 21 19 18 17 17 16 14 12 10 8 9 11 12 12 14 13 16 17 17 19 21
7 6 7 1 6 5 9 6 8 8 5 8 8 9 9 9 15 18 19 25 26 27 29 29 29 28 24 25 23 21 20 18 17 16 15 14 12 13 13 12 13 13 15 16 17 17 17 22 22
4 8 4 4 1 3 6 9 6 7 7 8 9 9 10 6 6 11 16 19 23 26 30 31 31 29 26 27 24 19 19 17 17 15 14 14 13 14 14 15 15 16 16 17 19 19 20 21 21
7 7 6 7 4 2 4 5 5 7 5 6 5 6 5 10 9 6 10 10 12 16 19 25 30 30 28 25 25 19 14 15 14 17 17 16 14 14 15 15 16 16 17 18 18 18 18 19 20
7 5 7 12 6 4 3 4 6 7 9 9 9 8 8 8 6 5 7 6 7 10 13 14 18 25 29 27 25 24 20 15 14 13 10 9 9 9 9 10 11 12 13 14 15 15 17 18 21
4 9 8 4 5 5 3 2 6 6 5 8 8 8 8 8 8 8 8 6 6 10 12 15 15 16 23 27 22 19 17 14 11 8 7 5 5 5 5 6 6 9 11 12 13 14 15 16 19
7 8 8 5 4 1 5 6 5 6 8 5 5 7 8 8 7 8 7 6 4 5 10 14 14 16 16 25 20 17 16 12 10 8 8 6 4 4 2 2 4 5 6 8 9 10 11 13 14
8 7 2 2 1 5 3 4 7 5 7 9 13 9 9 8 7 6 7 9 9 9 11 17 20 19 19 18 20 15 11 9 10 9 8 7 6 3 2 2 4 3 4 5 6 8 9 11 13
8 7 6 6 4 3 3 6 5 1 6 8 11 11 8 8 7 7 9 10 12 13 17 21 23 22 20 19 18 15 10 11 11 10 7 7 7 5 3 4 4 4 5 5 7 8 8 9 11
5 4 5 7 3 4 4 4 4 0 5 5 10 9 9 8 8 8 11 13 17 17 17 19 22 22 21 21 19 18 14 13 15 14 13 13 11 10 9 9 8 8 9 10 11 12 13 13 14
6 7 3 3 5 3 3 3 5 8 12 8 9 10 9 8 9 7 12 16 17 20 23 24 25 27 26 26 26 24 22 20 20 19 18 15 14 12 11 11 11 11 11 12 13 14 14 16 18
3 3 3 5 4 5 3 6 7 13 13 16 10 10 12 11 10 9 15 19 21 23 25 27 28 29 29 29 28 28 25 23 21 21 18 16 13 12 12 12 12 12 14 15 16 16 18 20 22
2 6 6 5 5 1 3 5 1 3 11 15 13 12 9 10 10 9 18 23 24 25 26 27 28 30 30 30 29 28 25 23 21 19 17 14 13 11 11 11 12 14 15 17 18 19 22 24 26
Wind_Direction
303 304 321 344 51 68 245 332 127 83 58 346 71 89 109 54 48 144 133 157 142 143 135 129 130 130 123 130 123 113 103 98 99 96 92 92 90 91 90 94 98 92 89 89 94 90 90 87 91
304 337 128 69 95 57 272 115 96 92 144 96 71 100 53 53 43 108 116 144 141 141 134 130 129 128 125 123 127 117 106 99 102 100 94 96 96 94 92 91 91 93 90 92 92 93 97 94 93
302 299 87 121 126 190 178 161 129 119 112 121 90 72 91 121 112 116 142 140 132 137 138 132 132 131 122 116 129 115 102 99 105 101 96 93 88 95 89 91 93 94 90 92 88 90 95 96 90
320 8 9 106 268 277 130 175 132 104 29 51 106 71 52 206 139 133 136 139 137 136 133 128 132 128 122 118 126 111 103 101 103 105 100 99 92 94 85 92 99 97 95 91 92 94 96 95 92
237 61 55 92 339 339 105 149 128 131 148 121 105 86 78 69 133 139 140 141 138 135 129 128 130 131 121 121 123 111 106 102 105 110 103 102 103 98 93 86 101 98 91 93 92 97 98 89 91
345 116 66 245 194 111 124 173 124 116 149 116 86 107 86 138 136 140 140 136 132 133 132 129 130 133 127 128 123 111 107 103 110 116 118 110 108 114 105 100 104 98 91 92 90 89 98 92 86
150 100 210 71 219 103 166 139 128 137 134 143 164 95 162 144 150 147 141 134 129 131 131 130 132 134 135 126 124 113 108 113 119 127 129 122 112 119 112 112 107 107 103 106 95 90 96 94 85
128 107 349 261 197 179 191 78 103 111 191 138 133 154 185 170 161 148 149 141 140 136 141 139 139 139 143 139 133 127 125 122 121 122 125 119 113 121 116 120 120 117 115 111 98 90 86 80 68
60 76 251 242 162 183 171 118 15 57 99 49 13 154 154 157 164 144 144 143 142 139 142 144 144 145 148 152 151 151 139 133 125 121 113 117 117 118 115 119 124 125 128 119 104 89 81 65 49
110 121 221 259 155 172 157 125 139 96 95 40 62 99 141 154 169 150 149 149 150 149 151 149 151 153 159 162 164 162 150 139 130 126 118 124 123 111 124 124 116 122 110 120 112 104 101 65 29
174 189 252 341 307 142 144 138 140 129 178 185 145 144 149 156 171 166 155 162 159 159 160 165 166 169 168 166 165 163 153 148 133 141 138 148 153 137 107 120 102 100 92 94 102 117 111 31 335
140 178 136 231 1 111 148 144 145 174 195 163 156 155 155 162 173 174 164 168 166 166 172 174 171 176 180 174 173 156 162 162 167 163 160 180 169 167 129 105 108 96 85 84 62 114 332 307 251
144 143 87 37 54 131 112 140 147 141 132 142 144 153 159 167 178 184 182 174 174 175 178 181 182 181 184 183 176 179 176 179 192 195 191 190 177 171 176 172 169 105 169 260 264 259 279 289 299
174 166 135 149 88 67 122 141 131 220 133 128 150 163 168 173 182 184 190 187 181 182 184 185 187 192 189 189 186 193 196 193 196 202 205 195 194 196 193 199 215 224 239 251 257 268 284 292 294
135 106 92 145 183 133 123 71 206 161 141 139 163 172 178 182 187 189 193 192 189 187 187 185 184 186 193 197 199 186 189 200 201 208 217 210 206 211 214 218 225 231 242 252 252 259 267 276 278
126 101 138 224 156 269 105 209 221 174 146 169 184 197 191 194 192 196 197 198 194 189 186 187 191 195 198 204 203 204 194 191 192 205 219 231 226 217 221 230 237 243 246 254 262 269 277 283 283
159 173 146 147 201 143 159 208 177 180 159 179 201 210 200 202 192 195 194 194 193 192 190 193 195 197 193 206 210 209 212 214 193 205 207 214 233 236 232 236 242 246 249 253 266 269 271 281 283
156 156 138 154 202 147 157 207 190 198 168 203 202 211 196 190 201 195 193 194 193 193 195 197 197 199 197 202 211 211 214 215 218 222 219 219 220 231 246 247 248 258 255 268 266 268 274 276 288
139 149 148 160 183 128 189 194 209 207 186 199 205 211 204 201 206 193 187 189 192 195 195 200 197 201 202 201 206 211 214 218 221 225 228 232 237 241 244 245 247 259 265 269 274 276 285 296 300
221 184 143 39 1 108 168 230 226 196 214 193 185 198 193 164 150 165 179 187 190 196 199 200 207 208 206 199 204 208 215 221 227 234 237 245 251 255 253 252 256 260 261 270 279 286 289 296 303
191 211 171 150 160 33 117 299 216 234 214 201 190 166 158 171 168 159 154 169 182 190 194 201 207 206 206 202 200 203 212 225 227 232 241 248 254 260 262 267 269 274 276 280 286 296 294 288 297
191 192 150 135 125 191 165 249 239 214 196 190 179 170 157 135 132 135 144 155 196 208 206 200 197 203 203 202 198 199 209 218 231 239 248 253 254 258 268 273 276 279 286 288 294 299 298 288 284
185 144 137 130 112 118 198 119 260 138 201 212 202 192 177 165 145 132 132 164 201 223 220 205 195 192 199 198 205 206 204 208 212 216 218 228 235 239 258 271 291 296 294 292 302 303 306 308 300
135 100 54 62 79 246 207 156 266 187 200 171 176 173 152 125 121 118 127 148 163 192 204 200 178 174 179 191 203 204 195 189 194 185 168 171 173 148 167 266 292 302 310 308 304 307 299 295 297
128 125 66 60 277 216 355 151 242 234 220 179 168 162 155 143 141 131 130 129 128 126 143 146 151 135 148 154 182 174 162 180 189 172 160 144 140 141 133 272 274 286 301 301 301 306 309 316 311
168 146 153 165 179 217 345 222 247 299 327 140 135 148 143 140 141 138 137 128 130 131 125 127 130 121 128 136 143 172 160 158 152 160 176 174 142 117 93 89 71 47 29 15 4 356 348 333 328
213 169 165 103 38 80 203 273 287 349 64 112 142 141 145 147 145 139 132 125 122 126 133 133 130 127 132 137 145 149 154 157 144 134 128 120 113 106 97 84 70 50 32 20 11 5 359 354 348
167 162 97 15 134 210 287 240 218 201 198 174 173 163 160 150 137 130 131 125 124 122 125 128 129 127 130 132 135 136 134 131 126 124 115 109 101 91 80 66 53 41 27 17 8 2 357 351 346
139 188 90 114 133 156 154 251 218 206 189 185 181 174 163 157 148 142 142 134 129 130 129 129 130 128 127 129 128 127 124 122 119 112 105 98 90 75 64 51 37 25 16 8 1 358 352 346 342
88 186 151 155 220 180 151 265 153 253 197 175 177 165 161 157 151 148 144 139 138 135 134 133 133 130 129 129 128 124 122 119 112 105 99 94 82 68 52 37 25 16 8 3 357 349 346 343 339
Height
806 806 805 807 835 841 840 828 817 822 826 820 814 823 838 838 843 860 845 847 850 853 857 859 860 861 863 865 866 866 866 868 869 869 871 871 871 871 871 871 872 872 872 873 873 873 872 873 873
805 805 806 815 843 853 848 823 831 824 821 816 819 827 834 849 838 843 847 849 850 854 857 859 860 862 864 865 867 868 870 870 871 872 873 874 874 874 875 875 875 875 875 876 875 875 875 876 876
806 806 815 827 841 844 843 827 826 821 817 818 823 825 834 847 842 843 847 850 852 855 858 860 861 863 864 866 868 869 872 872 873 874 876 876 877 877 877 878 878 878 878 879 879 879 879 879 880
806 806 814 833 836 821 825 827 820 821 819 816 825 841 837 839 840 844 849 851 853 857 859 861 863 865 866 868 870 871 873 874 875 877 878 879 879 880 880 880 880 881 881 882 882 882 883 883 882
807 812 828 834 825 816 819 817 816 823 824 820 822 844 844 840 840 846 848 852 854 857 859 862 864 866 868 870 872 874 875 875 876 878 879 880 881 882 883 883 883 883 883 884 884 885 885 885 885
813 813 837 843 829 816 814 813 815 821 824 825 834 840 846 843 843 848 850 853 856 858 860 863 865 867 869 871 873 875 875 876 877 879 881 882 882 883 884 884 885 885 886 886 886 887 887 887 887
813 823 834 828 832 821 814 810 818 823 824 822 824 844 847 844 846 849 851 853 856 859 862 864 867 869 871 873 874 876 877 878 879 881 882 882 883 884 885 885 886 886 887 887 888 888 889 889 889
808 817 823 825 834 827 811 809 811 817 823 815 820 845 850 841 845 849 852 853 856 860 862 865 867 870 872 874 875 876 878 880 881 882 883 884 884 885 886 886 887 888 889 889 889 890 890 891 891
800 826 833 827 827 821 811 815 811 812 818 820 821 825 827 837 844 849 852 855 856 859 863 865 868 870 872 873 876 877 878 880 881 883 884 885 885 886 887 888 889 889 889 890 890 891 891 892 892
811 827 819 809 810 816 812 812 815 821 824 830 829 827 832 837 842 846 851 852 854 857 860 865 868 870 872 873 875 877 879 881 882 883 885 885 886 887 887 888 889 889 890 890 891 891 892 892 892
806 819 809 804 801 803 813 815 811 824 829 826 829 831 833 836 840 843 849 851 852 856 861 864 867 870 872 873 876 878 879 881 883 884 885 886 887 887 888 889 890 890 891 891 892 892 892 892 892
810 802 803 804 803 803 813 812 816 817 817 816 820 825 831 836 839 841 844 849 853 855 860 864 867 870 871 874 875 877 879 880 881 884 885 886 887 888 888 889 890 890 891 891 892 892 892 892 892
806 805 805 805 805 805 807 814 815 819 814 814 821 825 829 834 838 841 844 847 849 853 858 861 865 868 871 874 875 877 878 880 882 883 884 885 886 887 888 889 889 890 891 891 891 891 891 891 891
801 804 807 806 808 808 814 815 812 819 816 819 821 825 827 831 835 839 843 845 847 850 854 858 863 866 869 872 873 875 877 879 880 881 883 885 886 887 889 889 890 890 891 891 891 891 891 891 891
801 815 811 810 810 812 812 822 820 816 818 823 825 826 827 828 831 833 836 840 843 846 850 855 859 863 867 869 872 874 876 878 880 881 883 884 885 886 887 888 888 889 890 890 890 890 890 889 889
804 815 827 813 812 813 816 830 818 815 818 825 826 827 826 825 826 830 834 837 841 844 846 850 855 860 864 868 870 873 875 877 879 881 883 884 885 886 887 887 887 888 888 888 889 889 889 888 887
809 830 824 821 813 814 818 825 816 816 818 823 827 827 825 825 824 826 829 834 839 842 844 847 850 855 859 864 867 870 873 875 878 880 881 882 884 885 885 886 887 888 888 888 887 886 885 884 883
818 819 817 825 818 815 823 819 819 815 817 820 823 825 824 823 821 822 825 829 833 838 841 844 847 851 856 861 865 867 870 872 875 877 879 881 882 883 883 884 884 885 885 885 885 884 883 882 881
801 808 813 816 813 816 824 823 818 816 816 820 821 824 823 821 817 820 823 826 831 834 837 841 844 848 852 857 861 865 866 869 872 874 876 877 879 881 882 882 882 883 882 882 882 881 881 879 878
798 808 816 819 814 812 823 822 816 817 815 812 813 817 817 819 819 819 821 824 826 830 834 836 839 844 848 851 858 862 865 868 870 872 874 875 876 877 878 878 879 880 879 880 881 881 879 877 876
801 806 817 816 820 816 817 826 817 811 808 809 807 810 811 815 818 819 820 823 825 828 830 833 836 839 844 848 854 859 863 865 868 869 870 871 872 873 874 876 877 877 878 878 877 877 876 874 873
804 792 803 816 819 831 818 839 819 814 810 810 809 811 813 813 816 818 820 821 823 826 827 830 833 836 840 846 850 853 857 861 864 867 869 870 871 871 873 874 874 874 875 874 875 874 873 872 870
792 795 803 811 818 825 825 836 817 812 813 812 810 812 812 813 815 818 820 822 822 824 826 828 831 834 836 841 846 850 855 858 861 864 866 868 869 870 871 871 872 872 871 871 871 871 870 870 868
789 797 805 816 828 840 823 829 823 814 800 805 807 812 813 815 817 817 821 822 822 822 823 825 828 831 834 838 843 847 850 855 859 861 863 864 866 868 869 869 869 870 869 868 869 868 868 867 866
786 798 840 841 850 840 835 831 812 794 791 792 799 810 813 814 819 820 822 822 822 821 823 823 826 828 832 837 842 847 850 853 856 859 862 863 864 866 867 869 869 868 869 868 867 867 867 866 865
790 795 827 827 849 837 832 826 805 793 795 791 795 806 811 815 818 820 822 822 822 821 823 824 825 829 831 835 841 847 852 855 855 857 862 864 864 865 867 866 867 868 867 866 865 864 863 862 861
788 797 793 824 885 846 828 812 798 798 799 801 803 807 812 816 818 820 821 822 821 821 823 825 826 829 830 834 838 844 852 856 855 858 860 863 864 865 865 866 866 866 866 865 864 863 862 861 860
777 781 802 816 843 840 826 812 803 807 802 803 807 807 811 814 816 819 823 824 825 825 826 826 828 830 833 835 841 845 849 855 857 858 859 863 865 866 866 866 866 865 865 864 863 861 860 859 858
783 787 787 796 814 827 840 815 786 780 788 793 801 803 807 812 815 817 823 824 826 828 828 829 833 834 837 839 844 847 851 854 858 858 860 862 865 865 866 866 865 864 863 862 861 860 858 856 854
773 776 780 799 809 812 821 801 776 777 782 785 794 799 809 812 814 818 820 823 826 828 830 833 837 837 839 843 846 849 852 854 857 858 859 861 863 864 865 865 864 863 862 861 859 858 855 852 850